Regional Weather Roundup
Issued by NWS

Home | Current Version | Previous Version | Graphics & Text | Print | Product List | Glossary On
Versions: 1 2 3 4 5 6 7 8 9 10 11 12 13 14 15 16 17 18 19 20 21 22 23 24 25 26 27
000
ASUS45 KSLC 230310
RWRUT

UTAH REGIONAL WEATHER ROUNDUP
NATIONAL WEATHER SERVICE SALT LAKE CITY UT
900 PM MDT TUE APR 22 2014

UTZ001>011-023>025-230400-

NORTHERN UTAH

CITY           SKY/WX    TMP DP  RH WIND       PRES   REMARKS
HILL AFB       LGT RAIN  41  37  87 NW17      29.82R
LOGAN          RAIN      41  36  82 VRB6      29.80R
OGDEN          RAIN      41  36  82 NW15      29.82R
PROVO AIRPORT  MOCLDY    48  34  57 NW29G40   29.78R
SALT LAKE CITY LGT RAIN  44  44 100 NW17G24   29.82R
VERNAL         CLOUDY    64  29  26 SW22G32   29.57F
WENDOVER       MOCLDY    48  25  40 W8        29.79R
HEBER CITY     CLOUDY    46  32  57 E8        29.72R
WEST JORDAN    CLOUDY    43  39  87 NW18G29   29.84R

$$

UTZ012>022-026-027-230400-

SOUTHERN UTAH

CITY           SKY/WX    TMP DP  RH WIND       PRES   REMARKS
BRYCE CANYON   MOCLDY    53  18  25 S24G32    29.82R
CEDAR CITY     CLOUDY    59  11  15 W14G29    29.74R
MILFORD        MOCLDY    58  19  22 W20       29.70R
MOAB/CYNLANDS  CLEAR     73  22  14 SW16G23   29.58R
PRICE          CLOUDY    61  28  28 W33G46    29.65R
ST GEORGE      CLOUDY    72  14  11 W20G30    29.68R

$$

REGIONAL REPORTS     COLORADO/ARIZONA

CITY           SKY/WX    TMP DP  RH WIND       PRES   REMARKS
CRAIG, CO      CLOUDY    54  33  45 SW8       29.70S
GRAND JUNCTION CLOUDY    62  31  31 E5        29.62S
RIFLE          CLOUDY    63  33  32 SE16      29.68F
MONTROSE       CLOUDY    65  32  29 SE13G20   29.75S
CORTEZ         CLEAR     64  23  21 S14       29.82R
PAGE, AZ       CLOUDY    74  24  15 SW14G32   29.68R
GRAND CANYON   CLOUDY    56  23  27 SW16G29   29.87S
KINGMAN        CLEAR     69  18  14 SW16      29.76R
FLAGSTAFF      MOCLDY    57  21  24 SW28G37   29.92R

$$

REGIONAL REPORTS    NEVADA/IDAHO/WYOMING

CITY           SKY/WX    TMP DP  RH WIND       PRES   REMARKS
LAS VEGAS, NV  PTCLDY    72  13  10 SW16      29.65R
ELY            MOCLDY    40  27  59 NW7       29.88R
ELKO           LGT RAIN  38  35  89 S6        29.88R WCI  33
POCATELLO, ID  LGT RAIN  39  37  92 SW25G33   29.75R WCI  28
BURLEY         CLOUDY    39  36  89 SW14      29.76R WCI  31
EVANSTON, WY   CLOUDY    39  34  82 W20       29.75R WCI  29
ROCK SPRINGS   CLOUDY    58  23  26 SW18G28   29.61F

$$



USA.gov is the U.S. government's official web portal to all federal, state and local government web resources and services.